Flag for U.S.A. Weather past 2 weeks in Irving, Texas, U.S.A.

Now
89 °F

Broken clouds.


Feels Like: 91 °F
Forecast: 77 / 89 °F
Wind: 8 mph from Southeast

Location: Dallas / Fort Worth International Airport

Current Time: Aug 28, 2014 at 9:22:02 PM

Latest Report: Aug 28, 2014 at 8:53 PM


Visibility: 10 mi

Pressure: 29.82 "Hg

Humidity: 45%

Dew point: 65 °F

Location of IrvingLocation

Historic Weather in Irving — Graph

°F

Irving temperature yesterday

Maximum temperature yesterday: 94 °F (at 2:53 PM)
Minimum temperature yesterday: 77 °F (at 6:53 AM)
Average temperature yesterday: 86 °F

Past Weeks' High & Low Weather Summary

 TemperatureHumidityPressure
High100 °F (Aug 15, 4:53 PM)94% (Aug 18, 1:53 AM)30.05 "Hg (Aug 18, 1:53 AM)
Low70 °F (Aug 17, 10:01 AM)27% (Aug 15, 4:53 PM)29.80 "Hg (Aug 28, 6:53 PM)
Average86 °F55%29.92 "Hg
* Reported Aug 13 7:53 PM — Aug 28 7:53 PM, Irving, Weather by CustomWeather, © 2014

Note: Actual official high and low records may vary slightly from our data, if they occured in-between our weather recording intervals... More about our weather records

Advertising

Irving weather history for previous 24 hours

 ConditionsComfort  
Time TempWeatherWind HumidityBarometerVisibility
7:53 PM
Aug 28
91 °FScattered clouds.9 mph38%29.80 "Hg10 mi
6:53 PM93 °FScattered clouds.10 mph33%29.80 "Hg10 mi
5:53 PM95 °FScattered clouds.17 mph35%29.80 "Hg10 mi
4:53 PM95 °FScattered clouds.15 mph35%29.81 "Hg10 mi
3:53 PM96 °FScattered clouds.14 mph32%29.84 "Hg10 mi
2:53 PM93 °FScattered clouds.10 mph38%29.87 "Hg10 mi
1:53 PM92 °FPartly sunny.10 mph43%29.90 "Hg10 mi
12:53 PM92 °FScattered clouds.9 mph44%29.92 "Hg10 mi
11:53 AM90 °FPassing clouds.12 mph48%29.94 "Hg10 mi
10:53 AM88 °FPassing clouds.12 mph52%29.95 "Hg10 mi
9:53 AM85 °FPassing clouds.10 mph57%29.94 "Hg10 mi
8:53 AM82 °FPassing clouds.7 mph65%29.94 "Hg10 mi
7:53 AM77 °FPassing clouds.No wind69%29.93 "Hg10 mi
6:53 AM76 °FPassing clouds.5 mph67%29.93 "Hg10 mi
5:53 AM77 °FClear.5 mph58%29.93 "Hg10 mi
4:53 AM76 °FClear.No wind60%29.93 "Hg10 mi
3:53 AM77 °FClear.5 mph56%29.93 "Hg10 mi
2:53 AM79 °FClear.3 mph52%29.93 "Hg10 mi
1:53 AM78 °FClear.3 mph56%29.95 "Hg10 mi
12:53 AM80 °FClear.6 mph51%29.96 "Hg10 mi
11:53 PM
Aug 27
82 °FClear.3 mph48%29.96 "Hg10 mi
10:53 PM82 °FClear.6 mph49%29.96 "Hg10 mi
9:53 PM83 °FClear.8 mph51%29.96 "Hg10 mi
Weather by CustomWeather, © 2014

See weather overviewHow to use our weather pages